| time (UTC) | temp F | wind direction | speed MPH | gust MPH | rain 1hr in | rain 24hr in | rain mn in | humidity % | barometer mb |
| 20260505070018 | 45 | 250 | 0.0 | 0.0 | 0.00 | 0.15 | 0.00 | 89 | 1004.7 |
| 20260505063009 | 45 | 250 | 0.0 | 0.0 | 0.00 | 0.15 | 0.00 | 89 | 1004.6 |
| 20260505061515 | 45 | 250 | 0.0 | 0.0 | 0.00 | 0.15 | 0.00 | 88 | 1004.5 |
| 20260505060013 | 45 | 250 | 0.0 | 0.0 | 0.00 | 0.15 | 0.00 | 88 | 1004.4 |
| 20260505054505 | 45 | 250 | 0.0 | 0.0 | 0.00 | 0.15 | 0.15 | 87 | 1004.6 |
| 20260505053012 | 45 | 250 | 0.0 | 0.0 | 0.00 | 0.15 | 0.15 | 86 | 1004.3 |
| 20260505051504 | 45 | 250 | 0.0 | 0.0 | 0.00 | 0.15 | 0.15 | 86 | 1004.3 |
| 20260505041611 | 46 | 259 | 0.0 | 0.0 | 0.06 | 0.15 | 0.15 | 86 | 1004.6 |
| 20260505034558 | 47 | 244 | 0.0 | 0.0 | 0.11 | 0.14 | 0.14 | 84 | 1004.3 |
| 20260505033058 | 47 | 253 | 0.0 | 8.0 | 0.08 | 0.11 | 0.11 | 83 | 1004.7 |
| 20260505031559 | 48 | 257 | 3.0 | 8.0 | 0.06 | 0.09 | 0.09 | 81 | 1004.3 |
| 20260505030052 | 49 | 298 | 4.0 | 9.0 | 0.03 | 0.06 | 0.06 | 78 | 1003.9 |
| 20260505024550 | 50 | 324 | 0.0 | 0.0 | 0.00 | 0.03 | 0.03 | 73 | 1003.4 |
| 20260505023050 | 51 | 5 | 0.0 | 0.0 | 0.00 | 0.03 | 0.03 | 69 | 1003.0 |
| 20260505021544 | 51 | 22 | 0.0 | 7.0 | 0.00 | 0.03 | 0.03 | 66 | 1002.7 |
| 20260505020043 | 53 | 309 | 0.0 | 0.0 | 0.00 | 0.03 | 0.03 | 62 | 1002.6 |
| 20260505014600 | 55 | 355 | 0.0 | 5.0 | 0.00 | 0.03 | 0.03 | 55 | 1002.8 |
| 20260505013042 | 55 | 185 | 0.0 | 0.0 | 0.00 | 0.03 | 0.03 | 54 | 1002.2 |
| 20260505011539 | 56 | 185 | 0.0 | 0.0 | 0.00 | 0.03 | 0.03 | 53 | 1002.2 |
| 20260505010039 | 56 | 109 | 0.0 | 0.0 | 0.00 | 0.03 | 0.03 | 50 | 1002.1 |
| 20260505004543 | 57 | 176 | 0.0 | 7.0 | 0.00 | 0.03 | 0.03 | 49 | 1002.0 |
| 20260505003038 | 58 | 342 | 0.0 | 0.0 | 0.00 | 0.03 | 0.03 | 47 | 1001.8 |
| 20260505001540 | 58 | 342 | 0.0 | 0.0 | 0.00 | 0.03 | 0.03 | 47 | 1001.8 |
| 20260505000044 | 58 | 346 | 0.0 | 0.0 | 0.00 | 0.03 | 0.03 | 47 | 1001.5 |
| 20260504234546 | 59 | 331 | 0.0 | 0.0 | 0.00 | 0.03 | 0.03 | 46 | 1001.4 |
| 20260504233138 | 59 | 15 | 0.0 | 0.0 | 0.00 | 0.03 | 0.03 | 46 | 1001.2 |
| 20260504231537 | 59 | 310 | 0.0 | 0.0 | 0.00 | 0.03 | 0.03 | 48 | 1001.1 |
| 20260504230036 | 58 | 338 | 0.0 | 11.0 | 0.00 | 0.03 | 0.03 | 46 | 1000.9 |
| 20260504224534 | 59 | 327 | 2.0 | 11.0 | 0.00 | 0.03 | 0.03 | 46 | 1000.9 |
| 20260504223039 | 59 | 316 | 0.0 | 6.0 | 0.00 | 0.03 | 0.03 | 46 | 1001.1 |
| 20260504221535 | 60 | 333 | 4.0 | 9.0 | 0.00 | 0.03 | 0.03 | 43 | 1000.8 |
| 20260504220033 | 61 | 355 | 1.0 | 11.0 | 0.00 | 0.03 | 0.03 | 39 | 1000.4 |
| 20260504214532 | 63 | 59 | 0.0 | 13.0 | 0.00 | 0.03 | 0.03 | 36 | 999.8 |
| 20260504213053 | 65 | 24 | 0.0 | 8.0 | 0.00 | 0.03 | 0.03 | 35 | 999.6 |
| 20260504211532 | 65 | 103 | 0.0 | 0.0 | 0.00 | 0.03 | 0.03 | 34 | 999.3 |
| 20260504210031 | 64 | 91 | 0.0 | 0.0 | 0.00 | 0.03 | 0.03 | 37 | 999.3 |
| 20260504204531 | 63 | 83 | 0.0 | 4.0 | 0.00 | 0.03 | 0.03 | 39 | 999.5 |
| 20260504203034 | 61 | 109 | 0.0 | 0.0 | 0.00 | 0.03 | 0.03 | 41 | 999.8 |
| 20260504201533 | 60 | 184 | 0.0 | 0.0 | 0.03 | 0.03 | 0.03 | 45 | 1000.3 |
| 20260504200030 | 59 | 116 | 2.0 | 7.0 | 0.03 | 0.03 | 0.03 | 48 | 1000.7 |
| 20260504194528 | 57 | 121 | 0.0 | 15.0 | 0.03 | 0.03 | 0.03 | 54 | 1000.3 |
| 20260504193030 | 60 | 207 | 2.0 | 11.0 | 0.03 | 0.03 | 0.03 | 50 | 1000.3 |
| 20260504191526 | 67 | 185 | 6.0 | 14.0 | 0.00 | 0.00 | 0.00 | 26 | 1000.1 |
| 20260504190027 | 69 | 220 | 0.0 | 0.0 | 0.00 | 0.00 | 0.00 | 21 | 999.3 |
| 20260504184524 | 69 | 244 | 1.0 | 8.0 | 0.00 | 0.00 | 0.00 | 20 | 999.2 |
| 20260504183025 | 69 | 328 | 0.0 | 9.0 | 0.00 | 0.00 | 0.00 | 22 | 999.2 |
| 20260504181523 | 69 | 349 | 0.0 | 0.0 | 0.00 | 0.00 | 0.00 | 23 | 999.2 |
| 20260504180020 | 69 | 306 | 0.0 | 7.0 | 0.00 | 0.00 | 0.00 | 24 | 999.6 |
| 20260504174518 | 70 | 272 | 1.0 | 11.0 | 0.00 | 0.00 | 0.00 | 22 | 999.7 |
| 20260504173026 | 71 | 311 | 5.0 | 14.0 | 0.00 | 0.00 | 0.00 | 23 | 1000.1 |
| 20260504171519 | 70 | 337 | 1.0 | 12.0 | 0.00 | 0.00 | 0.00 | 23 | 1000.2 |
| 20260504081501 | 48 | 327 | 0.0 | 0.0 | 0.00 | 0.00 | 0.00 | 42 | 1001.9 |